Texas Tower NM East of Long Beach, NJ (44066)

Conditions for Sunday

Daily
Weekly
Monthly
Marine Data Graph

Marine & Boating Location Search

Enter a coastal zip code for marine weather.

General Information

Location: 39.568 North -72.586 West
Buoy Type: 3-meter discus buoy
Payload: ARES payload
Owned by: NDBC
Windspeed: Measured by obtained from anemometer
Sea Surface: Measured by Intake

Weather and Wave Data

Time Temp Humidity Wind Dominant Wave Wind Wave Wave Swell Pressure
  Air
(°F)
Water
(°F)
  Dir Speed
(kts)
Speed
(mph)
Period
(sec)
Height
(ft)
Range
(ft)
Period
(sec)
Height
(ft)
Range
(ft)
Period
(sec)
Height
(ft)
Range
(ft)
Atmo.
(in)
Tend.
(in)
20:50 56 54 92 ESE 5.8 6.7 9 2.30 exactly 2.3 4 1.64 0.82 - 2.46 9 1.64 0.82 - 2.46 30.32 +0.01
21:50 56 54 87 SE 7.8 8.9 9 2.30 exactly 2.3 4 1.64 0.82 - 2.46 9 1.64 0.82 - 2.46 30.32 -
22:50 56 53 72 SE 9.7 11.2 10 2.62 exactly 2.6 4 1.64 0.82 - 2.46 10 1.64 0.82 - 2.46 30.31 -
23:50 56 54 78 SSE 9.7 11.2 5 2.30 exactly 2.3 4 1.64 0.82 - 2.46 5 1.64 0.82 - 2.46 30.30 -0.01
00:50 56 54 83 SSE 9.7 11.2 5 2.62 exactly 2.6 5 1.64 0.82 - 2.46 10 1.64 0.82 - 2.46 30.30 -0.02
01:50 56 53 86 SE 7.8 8.9 9 2.62 exactly 2.6 4 1.64 0.82 - 2.46 9 1.64 0.82 - 2.46 30.29 -0.02
02:50 56 53 83 SSE 7.8 8.9 8 2.30 exactly 2.3 4 1.64 0.82 - 2.46 8 1.64 0.82 - 2.46 30.29 -0.02
03:50 55 53 90 East 3.9 4.5 10 2.62 exactly 2.6 4 1.64 0.82 - 2.46 10 1.64 0.82 - 2.46 30.30 -
04:50 55 53 91 ESE 3.9 4.5 10 2.62 exactly 2.6 4 1.64 0.82 - 2.46 10 3.28 2.46 - 4.10 30.30 +0.01
05:50 56 54 90 South 5.8 6.7 10 2.62 exactly 2.6 4 1.64 0.82 - 2.46 10 1.64 0.82 - 2.46 30.30 +0.02
06:50 56 54 88 SE 7.8 8.9 10 2.95 exactly 3.0 4 1.64 0.82 - 2.46 10 3.28 2.46 - 4.10 30.30 -
07:50 56 54 90 SE 9.7 11.2 9 2.95 exactly 3.0 5 1.64 0.82 - 2.46 9 1.64 0.82 - 2.46 30.30 -
08:50 56 54 91 ESE 7.8 8.9 5 2.95 exactly 3.0 4 1.64 0.82 - 2.46 5 3.28 2.46 - 4.10 30.32 +0.01
09:50 56 54 93 East 7.8 8.9 9 2.95 exactly 3.0 4 1.64 0.82 - 2.46 9 3.28 2.46 - 4.10 30.32 +0.02
10:50 55 54 99 ESE 7.8 8.9 8 3.28 exactly 3.3 4 1.64 0.82 - 2.46 8 3.28 2.46 - 4.10 30.33 +0.04
11:50 56 54 98 ESE 11.7 13.4 5 3.28 exactly 3.3 5 1.64 0.82 - 2.46 9 1.64 0.82 - 2.46 30.32 -
12:50 56 54 100 ESE 9.7 11.2 6 3.61 exactly 3.6 5 1.64 0.82 - 2.46 6 3.28 2.46 - 4.10 30.30 -0.02
13:50 56 54 100 ESE 11.7 13.4 6 3.61 exactly 3.6 6 3.28 2.46 - 4.10 7 3.28 2.46 - 4.10 30.27 -0.06
14:50 56 54 98 SE 11.7 13.4 6 4.27 exactly 4.3 4 1.64 0.82 - 2.46 6 3.28 2.46 - 4.10 30.25 -0.07
15:50 58 54 88 SSE 13.6 15.7 6 3.94 exactly 3.9 6 3.28 2.46 - 4.10 10 1.64 0.82 - 2.46 30.23 -0.07
16:50 57 53 97 SSE 15.6 17.9 7 4.27 exactly 4.3 7 3.28 2.46 - 4.10 9 1.64 0.82 - 2.46 30.22 -0.05
17:50 56 53 100 SE 13.6 15.7 6 4.59 exactly 4.6 6 4.92 4.10 - 5.74 10 1.64 0.82 - 2.46 30.21 -0.04
19:50 56 53 100 SSE 13.6 15.7 - - - - - - 30.21 -0.01
20:50 56 53 100 SSE 13.6 15.7 7 4.92 exactly 4.9 7 4.92 4.10 - 5.74 9 1.64 0.82 - 2.46 30.21 -
21:50 57 53 98 SSE 13.6 15.7 7 5.25 exactly 5.2 6 4.92 4.10 - 5.74 7 3.28 2.46 - 4.10 30.20 -
22:50 56 53 100 South 11.7 13.4 7 4.92 exactly 4.9 6 3.28 2.46 - 4.10 7 3.28 2.46 - 4.10 30.19 -0.02
23:50 58 53 97 South 13.6 15.7 7 5.25 exactly 5.2 6 4.92 4.10 - 5.74 7 3.28 2.46 - 4.10 30.19 -0.02
00:50 58 53 97 South 11.7 13.4 7 4.92 exactly 4.9 5 3.28 2.46 - 4.10 7 3.28 2.46 - 4.10 30.17 -0.02
01:50 59 53 96 South 13.6 15.7 7 4.92 exactly 4.9 7 4.92 4.10 - 5.74 11 1.64 0.82 - 2.46 30.15 -0.04
02:50 58 53 98 South 13.6 15.7 7 4.92 exactly 4.9 5 3.28 2.46 - 4.10 7 3.28 2.46 - 4.10 30.12 -0.06
03:50 57 53 100 SSW 13.6 15.7 7 5.25 exactly 5.2 7 4.92 4.10 - 5.74 8 3.28 2.46 - 4.10 30.11 -0.06

Detailed Wave Spectra

Time Water Depth Wave Height Spectral Peak Period Average Wave Period Sampling Interval Wave Record
20:00 269 ft 2.36 ft 10.0 sec 5.3 sec 0.6 sec 2400 sec
21:00 269 ft 2.40 ft 9.1 sec 5.0 sec 0.6 sec 2400 sec
22:00 269 ft 2.33 ft 9.1 sec 5.2 sec 0.6 sec 2400 sec
23:00 269 ft 2.46 ft 10.0 sec 5.0 sec 0.6 sec 2400 sec
00:00 269 ft 2.43 ft 4.8 sec 4.9 sec 0.6 sec 2400 sec
01:00 269 ft 2.49 ft 5.0 sec 4.8 sec 0.6 sec 2400 sec
02:00 269 ft 2.62 ft 9.1 sec 5.1 sec 0.6 sec 2400 sec
03:00 269 ft 2.46 ft 8.3 sec 5.0 sec 0.6 sec 2400 sec
04:00 269 ft 2.62 ft 10.0 sec 5.3 sec 0.6 sec 2400 sec
05:00 269 ft 2.72 ft 10.0 sec 5.4 sec 0.6 sec 2400 sec
06:00 269 ft 2.62 ft 10.0 sec 5.4 sec 0.6 sec 2400 sec
07:00 269 ft 2.92 ft 10.0 sec 5.6 sec 0.6 sec 2400 sec
08:00 269 ft 2.92 ft 9.1 sec 5.2 sec 0.6 sec 2400 sec
09:00 269 ft 3.08 ft 5.3 sec 5.1 sec 0.6 sec 2400 sec
10:00 269 ft 3.08 ft 9.1 sec 5.1 sec 0.6 sec 2400 sec
11:00 269 ft 3.31 ft 8.3 sec 5.0 sec 0.6 sec 2400 sec
12:00 269 ft 3.28 ft 5.3 sec 5.0 sec 0.6 sec 2400 sec
13:00 269 ft 3.61 ft 5.6 sec 5.0 sec 0.6 sec 2400 sec
14:00 269 ft 3.64 ft 5.6 sec 5.1 sec 0.6 sec 2400 sec
15:00 269 ft 4.17 ft 6.3 sec 5.2 sec 0.6 sec 2400 sec
16:00 269 ft 4.07 ft 6.3 sec 5.0 sec 0.6 sec 2400 sec
17:00 269 ft 4.23 ft 6.7 sec 5.1 sec 0.6 sec 2400 sec
18:00 269 ft 4.72 ft 6.3 sec 5.2 sec 0.6 sec 2400 sec
19:00 269 ft 4.76 ft 6.3 sec 5.1 sec 0.6 sec 2400 sec
21:00 269 ft 4.95 ft 6.7 sec 5.2 sec 0.6 sec 2400 sec
22:00 269 ft 5.35 ft 6.7 sec 5.2 sec 0.6 sec 2400 sec
23:00 269 ft 4.79 ft 6.7 sec 5.0 sec 0.6 sec 2400 sec
00:00 269 ft 5.31 ft 7.1 sec 5.4 sec 0.6 sec 2400 sec
01:00 269 ft 4.92 ft 6.7 sec 5.2 sec 0.6 sec 2400 sec
02:00 269 ft 4.89 ft 6.7 sec 5.4 sec 0.6 sec 2400 sec
03:00 269 ft 4.82 ft 6.7 sec 5.4 sec 0.6 sec 2400 sec